When you browse on this site, cookies collect data to enhance your experience and personalize the content and advertising you see.
Visit our Privacy Policy to learn more. By continuing to use the site, you agree to this use of cookies and data.
  • In Hungary
  • List of Countries
  • For 7 days
  • Water Temperature
  • Weather Map
  • News
  • Weather Widgets
  • user-avatar
    Login

    Hourly Weather Juzhno-Kuril'sk

    Today, 7 April, Tuesday

    Time Temperature Precipitation Wind Pressure Humidity
    00:00 -1°C° 0 mm 3 mps 747 mmHg 92%
    01:00 -2°C° 0 mm 4 mps 747 mmHg 92%
    02:00 -2°C° 0 mm 4 mps 747 mmHg 92%
    03:00 -1°C° 0 mm 3 mps 747 mmHg 91%
    04:00 -2°C° 0 mm 4 mps 747 mmHg 92%
    05:00 -2°C° 0 mm 4 mps 748 mmHg 91%
    06:00 -2°C° 0 mm 4 mps 748 mmHg 89%
    07:00 -1°C° 0 mm 4 mps 748 mmHg 88%
    08:00 0°C° 0 mm 4 mps 748 mmHg 83%
    09:00 +1°C° 0 mm 4 mps 748 mmHg 78%
    10:00 +3°C° 0 mm 4 mps 748 mmHg 72%
    11:00 +2°C° 0 mm 5 mps 748 mmHg 77%
    12:00 +1°C° 0 mm 5 mps 748 mmHg 82%
    13:00 +1°C° 0 mm 5 mps 748 mmHg 86%
    14:00 +1°C° 0 mm 5 mps 748 mmHg 86%
    15:00 +1°C° 0 mm 6 mps 748 mmHg 86%
    16:00 +1°C° 0 mm 6 mps 749 mmHg 86%
    17:00 -1°C° 0 mm 6 mps 749 mmHg 89%
    18:00 -1°C° 0 mm 6 mps 749 mmHg 92%
    19:00 -2°C° 0 mm 6 mps 750 mmHg 96%
    20:00 -2°C° 0 mm 6 mps 750 mmHg 95%
    21:00 -2°C° 0 mm 6 mps 750 mmHg 94%
    22:00 -2°C° 0 mm 6 mps 751 mmHg 94%
    23:00 -1°C° 0.1 mm 5 mps 751 mmHg 94%

    Tomorrow, 8 April, Wednesday

    Time Temperature Precipitation Wind Pressure Humidity
    00:00 -1°C° 0.1 mm 5 mps 751 mmHg 94%
    01:00 -1°C° 0.1 mm 5 mps 751 mmHg 93%
    02:00 -1°C° 0 mm 5 mps 751 mmHg 93%
    03:00 -2°C° 0 mm 5 mps 752 mmHg 93%
    04:00 -2°C° 0 mm 5 mps 752 mmHg 92%
    05:00 -2°C° 0.1 mm 5 mps 753 mmHg 92%
    06:00 -2°C° 0.1 mm 4 mps 753 mmHg 91%
    07:00 -2°C° 0.1 mm 4 mps 753 mmHg 90%
    08:00 -1°C° 0 mm 4 mps 754 mmHg 87%
    09:00 -1°C° 0 mm 5 mps 755 mmHg 84%
    10:00 0°C° 0 mm 5 mps 755 mmHg 81%
    11:00 0°C° 0 mm 5 mps 756 mmHg 81%
    12:00 0°C° 0 mm 5 mps 756 mmHg 81%
    13:00 0°C° 0 mm 5 mps 757 mmHg 81%
    14:00 0°C° 0 mm 5 mps 757 mmHg 83%
    15:00 0°C° 0 mm 5 mps 757 mmHg 84%
    16:00 -1°C° 0 mm 5 mps 758 mmHg 86%
    17:00 -1°C° 0 mm 5 mps 758 mmHg 88%
    18:00 -2°C° 0 mm 5 mps 759 mmHg 91%
    19:00 -4°C° 0 mm 5 mps 759 mmHg 94%
    20:00 -3°C° 0 mm 4 mps 759 mmHg 93%
    21:00 -3°C° 0 mm 4 mps 760 mmHg 92%
    22:00 -3°C° 0 mm 4 mps 760 mmHg 92%
    23:00 -3°C° 0 mm 4 mps 760 mmHg 93%

    Day after tomorrow, 9 April, Thursday

    Time Temperature Precipitation Wind Pressure Humidity
    00:00 -2°C° 0 mm 3 mps 760 mmHg 94%
    01:00 -4°C° 0 mm 3 mps 760 mmHg 94%
    02:00 -4°C° 0 mm 3 mps 760 mmHg 94%
    03:00 -4°C° 0 mm 3 mps 760 mmHg 94%
    04:00 -4°C° 0 mm 3 mps 760 mmHg 93%
    05:00 -4°C° 0 mm 3 mps 760 mmHg 92%
    06:00 -2°C° 0 mm 3 mps 760 mmHg 90%
    07:00 -2°C° 0 mm 3 mps 760 mmHg 88%
    08:00 -1°C° 0 mm 3 mps 760 mmHg 84%
    09:00 +1°C° 0 mm 2 mps 759 mmHg 80%
    10:00 +3°C° 0 mm 1 mps 759 mmHg 76%
    11:00 +3°C° 0 mm 1 mps 759 mmHg 77%
    12:00 +2°C° 0 mm 2 mps 759 mmHg 79%
    13:00 +2°C° 0 mm 2 mps 758 mmHg 80%
    14:00 +1°C° 0.5 mm 2 mps 758 mmHg 85%
    15:00 +1°C° 0.5 mm 2 mps 758 mmHg 90%
    16:00 -1°C° 0.5 mm 2 mps 757 mmHg 95%
    17:00 -1°C° 1.1 mm 2 mps 757 mmHg 96%
    18:00 -1°C° 1.1 mm 2 mps 758 mmHg 97%
    19:00 -1°C° 1.1 mm 2 mps 758 mmHg 98%
    20:00 -1°C° 0.8 mm 2 mps 758 mmHg 98%
    21:00 -1°C° 0.8 mm 2 mps 758 mmHg 97%
    22:00 -2°C° 0.8 mm 2 mps 758 mmHg 97%
    23:00 0°C° 0.3 mm 1 mps 757 mmHg 97%

    10 April, Friday

    Time Temperature Precipitation Wind Pressure Humidity
    00:00 0°C° 0.3 mm 1 mps 757 mmHg 97%
    01:00 0°C° 0.3 mm 1 mps 757 mmHg 98%
    02:00 0°C° 0.1 mm 1 mps 757 mmHg 97%
    03:00 0°C° 0.1 mm 1 mps 757 mmHg 97%
    04:00 0°C° 0.1 mm 1 mps 756 mmHg 97%
    05:00 0°C° 0.2 mm 1 mps 756 mmHg 96%
    06:00 0°C° 0.2 mm 1 mps 757 mmHg 96%
    07:00 +1°C° 0.2 mm 1 mps 757 mmHg 95%
    08:00 -1°C° 0.1 mm 2 mps 757 mmHg 94%
    09:00 -1°C° 0.1 mm 2 mps 757 mmHg 94%
    10:00 0°C° 0.1 mm 3 mps 757 mmHg 93%
    11:00 -1°C° 0 mm 4 mps 757 mmHg 90%
    12:00 -1°C° 0 mm 5 mps 756 mmHg 88%
    13:00 -2°C° 0 mm 6 mps 756 mmHg 85%
    14:00 -3°C° 0 mm 6 mps 756 mmHg 85%
    15:00 -3°C° 0 mm 6 mps 756 mmHg 86%
    16:00 -4°C° 0 mm 6 mps 756 mmHg 86%
    17:00 -4°C° 0 mm 6 mps 757 mmHg 86%
    18:00 -5°C° 0 mm 6 mps 757 mmHg 86%
    19:00 -5°C° 0 mm 6 mps 757 mmHg 87%
    20:00 -6°C° 0 mm 6 mps 757 mmHg 86%
    21:00 -6°C° 0 mm 6 mps 758 mmHg 85%
    22:00 -6°C° 0 mm 6 mps 758 mmHg 84%
    23:00 -6°C° 0 mm 6 mps 758 mmHg 83%

    11 April, Saturday

    Time Temperature Precipitation Wind Pressure Humidity
    00:00 -6°C° 0 mm 6 mps 758 mmHg 82%
    01:00 -6°C° 0 mm 6 mps 758 mmHg 81%
    02:00 -6°C° 0 mm 6 mps 758 mmHg 84%
    03:00 -6°C° 0 mm 5 mps 758 mmHg 86%
    04:00 -6°C° 0 mm 5 mps 758 mmHg 89%
    05:00 -6°C° 0 mm 5 mps 758 mmHg 87%
    06:00 -5°C° 0 mm 5 mps 759 mmHg 85%
    07:00 -5°C° 0 mm 5 mps 759 mmHg 83%
    08:00 -5°C° 0 mm 5 mps 759 mmHg 81%
    09:00 -4°C° 0 mm 5 mps 759 mmHg 79%
    10:00 -4°C° 0 mm 5 mps 759 mmHg 77%
    11:00 -4°C° 0 mm 5 mps 759 mmHg 76%
    12:00 -4°C° 0 mm 5 mps 759 mmHg 75%
    13:00 -2°C° 0 mm 5 mps 759 mmHg 74%
    14:00 -2°C° 0 mm 4 mps 759 mmHg 75%
    15:00 -2°C° 0 mm 4 mps 759 mmHg 75%
    16:00 -2°C° 0 mm 4 mps 759 mmHg 75%
    17:00 -3°C° 0 mm 4 mps 759 mmHg 78%
    18:00 -3°C° 0 mm 4 mps 759 mmHg 80%
    19:00 -5°C° 0 mm 5 mps 760 mmHg 83%
    20:00 -5°C° 0 mm 5 mps 760 mmHg 86%
    21:00 -5°C° 0 mm 5 mps 760 mmHg 88%
    22:00 -4°C° 0 mm 4 mps 760 mmHg 91%
    23:00 -4°C° 0 mm 4 mps 760 mmHg 90%

    12 April, Sunday

    Time Temperature Precipitation Wind Pressure Humidity
    00:00 -4°C° 0 mm 4 mps 760 mmHg 88%
    01:00 -4°C° 0 mm 4 mps 759 mmHg 87%
    02:00 -4°C° 0 mm 4 mps 759 mmHg 86%
    03:00 -4°C° 0 mm 4 mps 759 mmHg 85%
    04:00 -4°C° 0 mm 4 mps 759 mmHg 85%
    05:00 -4°C° 0 mm 4 mps 759 mmHg 83%
    06:00 -4°C° 0 mm 4 mps 759 mmHg 81%
    07:00 -4°C° 0 mm 4 mps 759 mmHg 79%
    08:00 -2°C° 0 mm 3 mps 759 mmHg 76%
    09:00 -2°C° 0 mm 3 mps 759 mmHg 73%
    10:00 -1°C° 0 mm 2 mps 759 mmHg 69%
    11:00 +1°C° 0 mm 2 mps 759 mmHg 66%
    12:00 +2°C° 0 mm 2 mps 759 mmHg 62%
    13:00 +4°C° 0 mm 1 mps 759 mmHg 59%
    14:00 +4°C° 0 mm 1 mps 758 mmHg 59%
    15:00 +4°C° 0 mm 1 mps 758 mmHg 59%
    16:00 +4°C° 0 mm 1 mps 758 mmHg 59%
    17:00 +3°C° 0 mm 1 mps 758 mmHg 63%
    18:00 +1°C° 0 mm 2 mps 758 mmHg 68%
    19:00 -1°C° 0 mm 2 mps 758 mmHg 72%
    20:00 -2°C° 0 mm 2 mps 758 mmHg 74%
    21:00 -2°C° 0 mm 2 mps 758 mmHg 77%
    22:00 -2°C° 0 mm 3 mps 758 mmHg 79%
    23:00 -2°C° 0 mm 2 mps 758 mmHg 80%
    Show more